Susqueda - Veïnat del Far (La Selva)





Hora UTC 08:05
Temperatura 18.2 ºC
Humitat 90.0 %
Pressió 1003.3 hPa
Pluja 3.0 mm
Velocitat vent 0.0 km/h
Direcció vent N

Dades diàries 2024-07-21



Hora UTC (hivern +1h; estiu +2h)
Temperatura (ºC) Humitat (%) Pressió (hPa) Velocitat vent (km/h) Precipitació (mm)
Hora UTC Aire Humitat Pressió Vel. Dir. Vel. Max Dir. Intent. màx 5 min.
00:05 22.2 69.0 1001.8 4.8 N 4.8 0.0
00:10 22.1 70.0 1001.8 6.4 N 8.0 0.0
00:15 21.8 72.0 1001.9 8.0 N 8.0 0.0
00:20 21.8 72.0 1001.9 3.2 N 8.0 0.0
00:25 21.8 72.0 1001.9 6.4 N 11.3 0.0
00:30 21.7 74.0 1001.8 9.7 N 11.3 0.0
00:35 21.4 76.0 1001.8 8.0 N 11.3 0.0
00:40 21.2 77.0 1001.7 8.0 N 11.3 0.0
00:45 21.2 77.0 1001.6 3.2 N 11.3 0.0
00:50 21.1 77.0 1001.5 1.6 N 9.7 0.0
00:55 21.0 77.0 1001.5 8.0 N 11.3 0.0
01:00 20.9 78.0 1001.3 8.0 N 11.3 0.0
01:05 20.6 79.0 1001.3 9.7 N 12.9 0.0
01:10 20.4 80.0 1001.6 3.2 N 12.9 0.0
01:15 20.3 80.0 1001.4 6.4 N 12.9 0.0
01:20 20.1 81.0 1001.4 1.6 N 9.7 0.0
01:25 20.1 81.0 1001.5 4.8 N 6.4 0.0
01:30 19.9 82.0 1001.3 3.2 N 6.4 0.0
01:35 19.8 82.0 1001.3 1.6 N 6.4 0.0
01:40 19.7 83.0 1001.4 3.2 N 9.7 0.0
01:45 19.5 83.0 1001.4 3.2 N 9.7 0.0
01:50 19.4 83.0 1001.7 11.3 N 12.9 0.0
01:55 19.3 84.0 1001.4 8.0 N 12.9 0.0
02:00 19.2 84.0 1001.4 3.2 N 9.7 0.0
02:05 19.1 84.0 1001.5 4.8 N 9.7 0.0
02:10 19.0 85.0 1001.5 4.8 N 11.3 0.0
02:15 18.8 85.0 1001.5 6.4 N 16.1 0.0
02:20 18.7 86.0 1001.5 4.8 N 16.1 0.0
02:25 18.6 86.0 1001.6 3.2 N 9.7 0.0
02:30 18.6 86.0 1001.6 3.2 N 9.7 0.0
02:35 18.6 87.0 1001.5 0.0 N 9.7 0.0
02:40 18.5 87.0 1001.6 1.6 N 9.7 0.0
02:45 18.5 87.0 1001.6 4.8 N 9.7 0.0
02:50 18.4 88.0 1001.5 3.2 N 9.7 0.0
02:55 18.4 88.0 1001.6 11.3 N 11.3 0.0
03:00 18.3 88.0 1001.6 3.2 N 11.3 0.0
03:05 18.3 88.0 1001.6 0.0 N 14.5 0.0
03:10 18.2 88.0 1001.7 6.4 N 14.5 0.0
03:15 18.2 89.0 1001.7 0.0 N 9.7 0.0
03:20 18.2 89.0 1001.9 3.2 N 4.8 0.0
03:25 18.2 89.0 1002.0 3.2 N 4.8 0.0
03:30 18.1 89.0 1001.9 9.7 N 9.7 0.0
03:35 18.0 89.0 1001.9 3.2 N 11.3 0.0
03:40 17.8 89.0 1002.0 1.6 N 16.1 0.0
03:45 17.8 90.0 1001.8 6.4 N 19.3 0.0
03:50 17.7 90.0 1002.0 3.2 N 19.3 0.0
03:55 17.7 90.0 1001.9 4.8 N 14.5 0.0
04:00 17.8 90.0 1001.8 1.6 N 12.9 0.0
04:05 17.8 90.0 1001.9 4.8 N 25.7 0.0
04:10 17.8 90.0 1001.7 8.0 N 25.7 0.0
04:15 17.7 90.0 1001.7 8.0 N 19.3 0.0
04:20 17.6 91.0 1001.7 8.0 N 14.5 0.0
04:25 17.6 91.0 1001.7 6.4 N 14.5 0.0
04:30 17.4 90.0 1001.8 4.8 N 11.3 0.0
04:35 17.3 90.0 1001.8 4.8 N 11.3 0.0
04:40 17.2 91.0 1001.8 3.2 N 11.3 0.0
04:45 17.1 91.0 1001.8 3.2 N 8.0 0.0
04:50 17.0 90.0 1002.1 4.8 N 9.7 0.0
04:55 17.1 91.0 1002.1 4.8 N 9.7 0.0
05:00 17.2 91.0 1002.1 4.8 N 9.7 0.0
05:05 17.3 91.0 1002.2 1.6 N 6.4 0.0
05:10 17.4 91.0 1002.2 6.4 N 6.4 0.0
05:15 17.6 92.0 1002.2 1.6 N 8.0 0.0
05:20 17.7 91.0 1002.3 3.2 N 6.4 0.0
05:25 17.7 91.0 1002.4 1.6 N 6.4 0.0
05:30 17.8 91.0 1002.3 6.4 N 6.4 0.0
05:35 17.7 91.0 1002.4 4.8 N 6.4 0.0
05:40 17.7 92.0 1002.4 3.2 N 4.8 0.0
05:45 17.9 92.0 1002.2 1.6 N 4.8 0.0
05:50 17.9 92.0 1002.1 3.2 N 4.8 0.0
05:55 18.1 92.0 1002.2 3.2 N 4.8 0.0
06:00 18.1 91.0 1002.3 1.6 N 4.8 0.0
06:05 18.1 91.0 1002.3 0.0 N 3.2 0.0
06:10 18.2 91.0 1002.4 3.2 N 3.2 0.0
06:15 18.2 91.0 1002.4 1.6 N 6.4 0.0
06:20 18.2 91.0 1002.5 1.6 N 6.4 0.0
06:25 18.3 92.0 1002.6 3.2 N 3.2 0.0
06:30 18.4 91.0 1002.8 0.0 N 3.2 0.0
06:35 18.4 91.0 1002.8 1.6 N 6.4 0.0
06:40 18.5 91.0 1002.7 3.2 N 6.4 0.0
06:45 18.4 90.0 1002.6 3.2 N 4.8 0.0
06:50 18.4 90.0 1002.8 3.2 N 8.0 0.0
06:55 18.3 90.0 1002.8 3.2 N 8.0 0.0
07:00 18.3 90.0 1002.8 1.6 N 6.4 0.0
07:05 18.3 90.0 1002.9 4.8 N 6.4 0.0
07:10 18.2 90.0 1002.7 4.8 N 6.4 0.0
07:15 18.2 90.0 1002.7 1.6 N 6.4 0.0
07:20 18.2 89.0 1002.7 3.2 N 6.4 0.0
07:25 18.4 89.0 1003.0 3.2 N 4.8 0.0
07:30 18.4 89.0 1003.0 3.2 N 4.8 0.0
07:35 18.3 88.0 1003.0 0.0 N 6.4 0.2
07:40 18.3 89.0 1002.8 1.6 N 6.4 0.2
07:45 18.4 89.0 1002.9 4.8 N 4.8 1.0
07:50 18.4 89.0 1003.0 3.2 N 4.8 1.0
07:55 18.3 90.0 1002.7 3.2 N 6.4 0.2
08:00 18.3 90.0 1002.9 0.0 N 6.4 0.2
08:05 18.2 90.0 1003.3 0.0 N 4.8 0.2
Màxima 22.2 92.0 1003.3 11.3 N 25.7 1.0
Mínima 17.0 69.0 1001.3
Total 3.0